#timestamp,LO_Frequency,Hit,StdDev 
1651258815.1,286047000.2,N
1651258835.8,286046999.7,N
1651258855.7,286047000.9,N
1651258875.5,286046998.1,N
1651258895.3,286047000.7,N
1651258915.2,286047000.8,N
1651258935.0,286047002.4,N
1651258935.9,286047002.4,N
1651258955.8,286047000.5,N
1651258975.6,286047000.0,N
1651258995.4,286046999.9,N
1651259015.3,286047002.3,N
1651259035.1,286047002.6,N
1651259055.8,286047001.9,N
1651259075.7,286047001.6,N
1651259095.5,286047002.7,N
1651259115.4,286047000.0,N
1651259135.2,286047000.1,N
1651259155.0,286047000.8,N
1651259155.9,286047000.8,N
1651259175.8,286046998.7,N
1651259195.6,286046998.7,N
1651259215.4,286047001.1,N
1651259235.3,286047001.2,N
1651259255.1,286047001.2,N
1651259275.9,286046998.9,N
1651259295.7,286046998.9,N
1651259315.5,286047001.1,N
1651259335.4,286046998.9,N
1651259355.2,286046998.4,N
1651259375.0,286046998.3,N
1651259375.9,286046998.3,N
1651259395.8,286046998.1,N
1651259415.6,286047001.2,N
1651259435.5,286047000.4,N
1651259455.3,286047000.3,N
1651259475.1,286046999.9,N
1651259495.9,286047000.9,N
1651259515.7,286047000.3,N
1651259535.5,286047000.8,N
1651259555.4,286046998.4,N
1651259575.2,286046998.9,N
1651259595.1,286047000.8,N
1651259596.0,286047000.8,N
1651259615.8,286047001.2,N
1651259635.6,286046998.6,N
1651259655.5,286047000.9,N
1651259675.3,286047001.1,N
1651259695.1,286047000.8,N
1651259715.9,286047001.0,N
1651259735.7,286047000.8,N
1651259755.6,286047001.1,N
1651259775.4,286047000.9,N
1651259795.2,286046998.2,N
1651259815.1,286046999.2,N
1651259816.0,286046999.2,N
1651259835.8,286046997.1,N
1651259855.6,286046997.9,N
1651259875.5,286046997.7,N
1651259895.3,286046997.3,N
1651259915.2,286046996.8,N
1651259935.9,286046999.5,N
1651259955.7,286046996.6,N
1651259975.6,286046997.4,N
1651259995.4,286046997.0,N
1651260015.2,286046995.0,Y
1651260035.1,286046995.0,P
1651260036.0,286046995.0,N
1651260055.8,286046995.5,N
1651260075.7,286046995.3,N
1651260095.5,286046997.9,N
1651260115.3,286046997.0,N
1651260135.2,286046997.4,N
1651260155.0,286046997.4,N
1651260155.9,286046997.4,N
1651260175.7,286046995.0,Y
1651260195.6,286047000.8,P
1651260215.4,286047001.1,N
1651260235.3,286047000.9,N
1651260255.1,286047001.0,N
1651260256.0,286047001.0,N
1651260275.8,286047000.6,N
1651260295.7,286047000.3,N
1651260315.5,286047001.2,N
1651260335.3,286046998.2,N
1651260355.2,286046998.7,N
1651260375.0,286046999.3,N
1651260375.9,286046999.3,N
1651260395.8,286046999.4,N
1651260415.6,286046999.1,N
1651260435.4,286046998.7,N
1651260455.3,286047000.0,N
1651260475.1,286047001.2,N
1651260495.9,286046998.5,N
1651260515.7,286046998.1,N
1651260535.5,286047000.2,N
1651260555.4,286046999.7,N
1651260575.2,286046999.8,N
1651260595.0,286047000.1,N
1651260595.9,286047000.1,N
1651260615.8,286047000.4,N
1651260635.6,286047000.9,N
1651260655.5,286047001.1,N
1651260675.3,286047001.0,N
1651260695.1,286047002.7,N
1651260715.9,286046999.7,N
1651260735.7,286046999.8,N
1651260755.5,286047000.8,N
1651260775.4,286046999.0,N
1651260795.2,286046998.4,N
1651260815.1,286047000.4,N
1651260816.0,286047000.4,N
1651260835.8,286047000.8,N
1651260855.6,286047000.0,N
1651260875.5,286046998.6,N
1651260895.3,286046999.0,N
1651260915.1,286046998.6,N
1651260935.9,286046998.8,N
1651260955.7,286047000.5,N
1651260975.6,286046998.5,N
1651260995.4,286047001.1,N
1651261015.2,286047001.0,N
1651261035.1,286046998.1,N
1651261036.0,286046998.1,N
1651261055.8,286046998.1,N
1651261075.6,286046998.9,N
1651261095.5,286046996.6,Y
1651261115.3,286046996.7,P
1651261135.2,286046997.4,N
1651261155.9,286046998.0,N
1651261175.7,286046997.8,N
1651261195.6,286046997.4,N
1651261215.4,286046997.5,N
1651261235.3,286046997.3,Y
1651261255.1,286046998.3,P
1651261256.0,286046998.3,P
1651261275.8,286047001.2,P
1651261295.7,286046999.5,N
1651261315.5,286046997.6,N
1651261335.3,286046999.2,N
1651261355.2,286046998.4,N
1651261375.0,286046999.4,N
1651261375.9,286046999.4,N
1651261395.8,286046998.3,N
1651261415.6,286046999.4,N
1651261435.4,286046999.0,N
1651261455.3,286046999.1,N
1651261475.1,286046998.8,N
1651261495.8,286046998.4,N
1651261515.7,286046997.0,Y
1651261535.5,286046999.5,P
1651261555.4,286046996.5,P
1651261575.2,286046996.5,N
1651261595.0,286046996.9,N
1651261595.9,286046996.9,N
1651261615.8,286046998.3,N
1651261635.6,286047000.8,N
1651261655.4,286046998.1,N
1651261675.3,286046998.2,N
1651261695.1,286046998.9,N
1651261715.9,286046998.3,N
1651261735.7,286047000.9,N
1651261755.5,286047002.1,N
1651261775.4,286047002.4,N
1651261795.2,286047001.9,N
1651261815.1,286047002.1,N
1651261816.0,286047002.1,N
1651261835.8,286047002.3,N
1651261855.6,286046998.5,N
1651261875.5,286046999.1,N
1651261895.3,286046998.6,N
1651261915.1,286046998.2,N
1651261935.9,286046999.9,N
1651261955.7,286046999.8,N
1651261975.6,286047002.8,N
1651261995.4,286046999.9,N
1651262015.2,286047002.8,N
1651262035.1,286046999.9,N
1651262036.0,286046999.9,N
1651262055.8,286047002.4,N
1651262075.6,286047000.7,N
1651262095.5,286047002.8,N
1651262115.3,286047001.9,N
1651262135.2,286047000.1,N
1651262155.9,286047001.3,N
1651262175.7,286047002.2,N
1651262195.6,286047003.8,N
1651262215.4,286047004.2,N
1651262235.2,286047002.2,N
1651262255.1,286047001.4,N
1651262256.0,286047001.4,N
1651262275.8,286047002.1,N
1651262295.7,286046999.7,N
1651262315.5,286047002.1,N
1651262335.3,286047002.6,N
1651262355.2,286047002.2,N
1651262375.0,286047002.6,N
1651262375.9,286047002.6,N
1651262395.8,286047002.1,N
